Location: Ostrava
(49.8330°N, 18.2830°E)
Time: 05:33:57
(UTC+02:00)

ISS - Pass Details

Date: 21 May 2021
Orbit: 417 x 422 km, 51.6° (Epoch: 13 June)

Event Time Altitude Azimuth Distance (km) Brightness Sun altitude
Rises 00:32:39 0° 288° (WNW) 2,370 0.3 -19.9°
Reaches altitude 10° 00:34:46 10° 285° (WNW) 1,505 -0.8 -20.0°
Enters shadow 00:37:08 40° 268° (W) 631 -2.9 -20.0°
